Vertical_Velocity
5 4 2 4 4 2 2 2 2 -0 1 5 0 0 -0 -2 2 3 0 -0 3 2 -1 -2 -3 -1 -1 -1 0 -1 -2 -3 1 -1 -1 1 1 1 1 1 2 2 2 1 0 -2 -4 -10 2 3 1 1 4 2
3 3 -1 1 0 4 4 4 1 3 1 1 6 2 1 -2 -5 1 4 1 -0 -1 -2 -2 -2 -2 -2 -3 -3 -0 -0 0 -1 0 3 2 0 3 4 3 1 -2 -1 1 -1 3 1 -3 -9 -4 -1 0 -2 0
4 7 4 3 5 7 6 9 9 6 7 5 5 3 -0 1 -2 -3 2 2 -2 5 4 -2 -2 -1 -5 -2 0 0 -1 -1 3 1 -0 1 0 5 1 4 4 3 2 0 -1 9 3 0 -0 -4 -6 -1 -3 -2
1 0 -4 -1 2 1 2 1 5 9 10 7 4 1 0 -2 -0 -7 2 2 -3 -2 4 1 2 -1 -4 -1 1 2 0 2 1 0 -1 1 1 1 4 1 1 2 3 1 1 5 -2 3 5 0 1 -3 -5 -4
1 2 2 0 3 1 -1 -1 2 -2 1 1 -0 2 3 -1 1 -2 5 2 1 -2 -2 8 7 3 1 0 -1 -0 2 1 1 0 2 -0 2 -5 3 3 12 -9 3 -1 -1 2 -3 -2 -0 1 3 1 2 -1
2 1 0 2 3 4 4 6 4 2 1 0 -0 2 0 -2 3 -5 2 7 3 1 -7 -3 17 6 -3 1 -2 -4 -3 -0 -1 0 -1 5 2 -8 -2 10 4 -3 -1 -1 2 1 1 -0 -2 0 -0 0 -2 1
1 2 3 2 1 3 6 7 7 6 6 5 4 3 -2 -7 -6 -4 3 1 5 -1 -8 -14 3 21 -6 1 -7 -4 -7 -5 -4 -2 1 -4 0 -9 0 10 -8 -9 -1 -0 -1 -1 0 1 1 -1 -1 -0 0 -2
4 5 4 4 4 3 2 6 7 11 8 7 7 -1 -6 -19 -3 3 11 4 -3 -4 -5 -8 5 3 -6 7 -7 -5 -7 -6 -0 -4 5 -1 -0 -7 6 -0 -8 1 1 0 -1 -1 -2 -0 1 0 -0 -1 -1 -1
4 -1 -2 4 5 7 8 5 7 9 12 9 14 2 -28 -15 5 19 1 -8 3 -4 -11 -1 31 -14 18 2 0 -1 -1 -0 -4 3 0 -10 8 9 -10 -4 -4 4 -0 1 -1 -1 -0 -1 -0 1 0 0 -1 1
4 6 7 4 2 6 9 9 10 11 19 10 -5 -2 -22 -3 8 12 -7 -6 -13 -5 -11 12 11 -4 -9 1 0 -5 -1 2 -14 3 -9 -1 21 -7 -7 -4 -8 6 3 1 -1 -4 2 -1 -0 0 1 -1 -2 -2
5 4 6 8 9 5 6 10 11 20 23 -34 8 3 6 -1 7 -4 1 -14 -8 -6 -7 26 11 -0 3 -5 -3 -12 -7 -12 -11 -1 -10 -9 33 -10 -5 -4 0 1 5 4 1 -1 -0 -1 0 0 -1 -1 -3 -2
3 3 4 5 5 6 9 15 15 6 17 -0 13 10 5 -5 -6 -2 -20 -14 4 -11 18 8 -3 -5 0 -5 -6 -2 -5 -11 -10 -4 -8 -11 40 -9 -5 -1 -1 2 2 4 4 2 0 0 0 -0 -1 -2 -2 -1
4 4 5 6 7 7 6 10 12 -10 24 12 11 11 6 -5 -16 -26 -15 -8 8 25 14 7 4 -2 -4 -1 -4 -2 -5 -4 -0 -7 -2 15 2 -3 -6 6 2 3 3 1 -0 -1 2 2 2 1 -0 -3 -2 -2
1 3 4 4 4 3 8 12 2 7 16 16 10 34 8 -20 -25 -17 7 9 1 3 8 8 -1 -1 1 3 -2 -1 -9 -4 -17 -4 10 12 1 -2 1 3 1 0 1 1 1 2 4 3 3 3 2 1 -1 -3
3 6 5 4 4 1 4 8 -0 2 16 17 12 1 -36 1 -7 -1 -1 -1 11 13 13 3 -0 -3 9 1 -0 -3 -5 -11 -1 12 0 -3 -0 3 -0 -1 -0 0 0 0 -0 -2 -1 0 -0 1 1 0 -1 -2
7 -3 -0 4 6 3 4 3 -6 12 7 10 6 -11 -12 3 -1 1 9 11 19 12 9 6 1 3 10 -2 -3 3 -1 8 -1 -4 -1 -3 2 1 1 2 2 1 -1 -2 -1 -1 -1 1 1 1 0 -2 -1 0
-3 -6 11 11 13 7 2 -1 -0 3 7 -7 -17 -0 0 3 9 11 11 13 15 -3 12 19 8 8 -4 -14 5 -1 2 5 4 2 4 1 1 1 3 1 2 1 -0 -0 -0 1 1 1 -0 -0 -1 -3 -0 -1
-7 5 11 12 9 2 -2 3 1 -1 -7 -3 -1 12 4 11 22 1 5 2 17 3 -3 18 7 -8 -1 -0 -1 2 1 1 4 2 0 2 1 2 4 2 -1 1 2 2 2 2 1 -0 0 -0 1 -3 1 -1
8 20 17 11 1 2 3 4 3 -1 2 5 4 9 11 9 4 18 1 12 7 16 22 5 -3 -6 -1 2 -1 -3 -1 2 0 -2 1 3 3 3 3 1 1 1 1 2 1 1 1 1 0 -1 -0 -1 0 -1
5 4 3 -1 4 1 2 -2 1 3 -0 4 6 9 12 8 4 15 7 2 8 9 2 -1 4 -1 -1 -4 -2 1 2 1 1 -1 -1 -1 -1 -0 2 0 -0 0 -1 1 1 2 1 -1 -1 0 -0 1 2 0
2 -4 -3 2 0 1 -1 -4 2 -1 0 -0 4 6 6 2 -1 10 12 15 12 9 2 3 1 -2 -2 -0 1 1 1 1 -0 0 -2 -2 1 2 0 -1 -0 0 1 1 -1 -2 2 2 -3 -2 0 0 2 1
-2 -3 0 -1 -1 -1 -2 1 -1 3 -0 8 4 5 9 4 8 2 10 15 7 1 2 -0 -1 1 3 2 0 -0 -1 0 -0 -1 1 0 -2 -2 1 0 -1 -2 0 1 1 -0 -3 -0 1 0 0 -1 1 1
0 -1 -3 -2 -1 -2 -1 1 3 5 2 4 3 3 2 3 8 10 8 13 2 2 1 2 4 4 3 2 0 -1 -0 0 -1 -1 -1 -1 0 -1 -1 0 -0 -1 -3 -0 -0 -1 -1 -0 -0 -1 -1 -0 0 1
-2 -2 -3 -4 -4 -5 -2 0 1 -1 -1 -2 3 2 5 8 9 4 3 3 2 2 2 2 3 2 1 -0 -1 -2 -1 1 -0 -1 1 -1 -1 -1 -1 -1 -1 -1 -1 -2 -2 -1 -1 -1 -0 -0 -0 -0 -1 -1
-3 -3 -3 -1 -0 -1 -0 2 2 4 3 4 7 4 -1 3 2 4 2 -0 0 1 1 1 -0 -1 -2 -2 -1 -1 1 1 0 0 -0 -0 -0 0 1 -1 -3 -1 -1 -1 1 -0 -1 -0 0 -0 -1 -1 -1 1
-4 -2 -2 3 4 5 10 4 3 4 2 2 3 3 3 3 2 -0 3 3 2 0 -1 -2 -1 -1 -0 0 1 1 -1 -1 -2 -1 -1 -2 -1 -1 -3 -3 -1 4 1 0 0 -2 -1 -1 -2 -1 -1 -0 0 2
1 -1 2 4 3 3 1 3 3 1 1 0 -1 -2 1 0 -0 -1 -1 -1 -1 0 1 1 0 -0 0 1 1 0 -1 -2 -3 -3 -3 -0 2 1 -1 -1 -2 -1 -2 -0 1 -1 -2 -1 0 1 1 0 0 1
1 -1 -0 1 1 1 0 1 2 2 2 2 2 1 -1 1 1 0 1 1 1 1 0 1 1 -0 -1 -1 -1 -2 -1 -1 1 1 -0 0 -1 -0 -0 -1 -1 -2 -1 -2 -1 -1 0 0 -1 -0 1 -1 -2 1
-0 -1 -1 -2 -1 -0 -1 0 0 0 -0 -1 0 1 0 1 1 1 1 1 0 -0 -1 -1 -1 -1 -1 0 1 0 -1 -2 -2 -3 -3 -2 -2 1 -2 -3 -4 -2 -1 -3 -1 0 -1 -1 -0 1 -1 -2 -0 -1
1 2 0 0 1 -0 -0 1 0 1 1 1 2 1 1 0 0 1 1 1 1 1 0 -0 -1 -0 -0 -0 -2 -5 2 4 4 3 3 -2 -3 -4 -0 0 -1 -1 -1 -2 -4 -2 2 -1 -2 1 -1 -3 1 -1
1 1 0 1 0 1 1 1 1 1 0 0 0 0 0 -0 0 -0 -0 0 0 1 1 1 2 2 0 -0 1 3 -1 -7 -4 -4 -0 2 -1 -2 -2 -1 -0 0 -0 -0 -2 -2 -1 -1 -0 -0 -0 -2 1 -0
-0 -1 -1 -0 -0 -0 -0 -1 -1 -1 -1 -1 -1 -1 0 0 0 1 1 1 1 0 0 -0 -0 -3 -2 -1 -3 -2 3 5 -1 -1 -1 -2 -2 -0 2 1 -0 -0 1 -0 1 -0 -1 -0 -1 1 0 -1 0 1
-0 -0 0 0 0 0 1 0 1 1 1 1 1 1 1 -0 -1 -1 -2 -1 1 2 0 1 -1 -2 -3 -3 -2 -1 -1 1 1 0 0 1 0 1 -0 -0 -1 -2 -1 -0 2 1 -1 0 -0 -1 1 -0 0 1
Height
5667 5666 5664 5663 5662 5660 5659 5658 5656 5654 5652 5651 5648 5646 5645 5643 5641 5641 5640 5638 5637 5634 5632 5630 5627 5626 5623 5620 5617 5615 5613 5609 5607 5603 5600 5597 5595 5595 5594 5592 5591 5590 5588 5587 5585 5585 5586 5585 5583 5583 5586 5587 5590 5592
5649 5648 5647 5645 5644 5643 5643 5642 5639 5637 5635 5634 5633 5631 5630 5628 5626 5625 5623 5621 5620 5619 5618 5615 5614 5612 5612 5609 5607 5603 5600 5597 5595 5592 5589 5586 5584 5583 5583 5582 5581 5580 5581 5580 5580 5578 5576 5577 5578 5576 5573 5575 5576 5576
5631 5629 5628 5627 5627 5625 5624 5623 5622 5620 5618 5616 5614 5613 5612 5611 5609 5607 5607 5605 5604 5603 5603 5601 5599 5597 5595 5594 5593 5590 5587 5583 5582 5579 5577 5573 5572 5572 5571 5572 5572 5571 5569 5571 5570 5571 5567 5567 5567 5568 5569 5567 5566 5566
5616 5615 5613 5612 5609 5607 5605 5604 5603 5602 5601 5598 5596 5595 5595 5593 5593 5592 5592 5591 5588 5587 5589 5588 5584 5582 5581 5580 5578 5577 5574 5572 5570 5568 5565 5563 5561 5561 5560 5559 5561 5562 5559 5558 5562 5560 5556 5556 5557 5556 5557 5558 5558 5558
5599 5598 5597 5596 5594 5593 5592 5590 5587 5585 5582 5581 5580 5580 5579 5578 5577 5576 5577 5576 5575 5575 5576 5576 5574 5571 5570 5568 5567 5566 5564 5562 5559 5558 5556 5553 5551 5549 5547 5546 5553 5550 5544 5545 5549 5549 5547 5547 5545 5545 5546 5546 5547 5547
5579 5578 5577 5577 5576 5576 5576 5574 5572 5570 5568 5566 5565 5566 5565 5566 5566 5566 5566 5568 5565 5564 5564 5564 5567 5564 5560 5557 5558 5557 5555 5553 5550 5548 5546 5543 5542 5538 5532 5535 5544 5538 5528 5530 5535 5536 5537 5536 5536 5535 5535 5535 5535 5535
5558 5557 5556 5555 5555 5554 5555 5556 5555 5553 5551 5550 5547 5545 5547 5550 5550 5550 5553 5553 5552 5551 5550 5551 5553 5557 5551 5547 5547 5545 5544 5542 5540 5538 5536 5534 5531 5527 5525 5531 5528 5521 5518 5521 5522 5523 5523 5522 5523 5523 5522 5522 5522 5522
5535 5534 5533 5532 5532 5532 5532 5533 5532 5532 5530 5529 5527 5526 5528 5530 5532 5535 5537 5536 5538 5536 5535 5535 5539 5540 5537 5536 5534 5532 5531 5529 5528 5526 5526 5523 5518 5517 5518 5518 5508 5507 5509 5507 5509 5509 5509 5508 5509 5509 5509 5508 5508 5507
5506 5505 5506 5508 5508 5509 5510 5509 5509 5509 5508 5507 5504 5503 5503 5511 5516 5519 5515 5518 5521 5521 5517 5521 5525 5525 5523 5521 5518 5517 5515 5514 5513 5514 5512 5508 5507 5506 5504 5501 5497 5493 5492 5493 5493 5493 5493 5494 5494 5494 5494 5494 5494 5493
5474 5475 5476 5476 5478 5480 5482 5484 5485 5486 5485 5483 5479 5477 5483 5491 5497 5498 5497 5500 5502 5504 5504 5510 5512 5508 5507 5504 5502 5502 5499 5499 5497 5499 5496 5496 5497 5492 5490 5485 5481 5479 5477 5478 5478 5478 5480 5479 5479 5479 5479 5479 5479 5478
5440 5442 5445 5447 5449 5451 5456 5458 5460 5461 5458 5454 5458 5457 5464 5473 5475 5475 5478 5481 5482 5488 5494 5500 5496 5490 5490 5490 5488 5484 5483 5481 5482 5486 5483 5481 5484 5476 5471 5469 5467 5465 5464 5464 5465 5466 5466 5466 5466 5465 5464 5463 5463 5463
5410 5412 5416 5419 5421 5424 5428 5433 5433 5432 5432 5437 5442 5438 5441 5444 5449 5453 5458 5460 5467 5473 5480 5480 5475 5475 5476 5474 5472 5471 5469 5469 5468 5468 5467 5468 5467 5458 5456 5455 5454 5452 5451 5452 5452 5453 5452 5453 5453 5452 5451 5451 5450 5449
5384 5386 5389 5390 5394 5399 5404 5407 5406 5408 5419 5417 5419 5414 5419 5419 5423 5432 5440 5449 5458 5463 5464 5459 5457 5458 5459 5461 5457 5456 5455 5455 5454 5454 5455 5455 5447 5443 5441 5442 5440 5440 5440 5440 5439 5439 5440 5440 5440 5439 5438 5436 5435 5434
5364 5365 5366 5367 5368 5373 5377 5380 5378 5393 5396 5395 5395 5394 5393 5401 5408 5422 5433 5439 5441 5443 5442 5440 5440 5442 5443 5442 5440 5439 5438 5439 5437 5440 5442 5438 5433 5429 5429 5429 5429 5428 5428 5427 5426 5426 5425 5424 5423 5421 5420 5419 5417 5414
5348 5349 5349 5349 5351 5353 5354 5355 5358 5365 5372 5372 5372 5371 5382 5399 5403 5412 5418 5422 5425 5426 5426 5425 5425 5427 5427 5425 5425 5424 5422 5422 5424 5424 5422 5418 5416 5416 5416 5416 5415 5415 5415 5414 5413 5412 5411 5409 5407 5405 5403 5401 5398 5395
5332 5332 5334 5335 5337 5337 5338 5339 5340 5345 5346 5349 5351 5358 5376 5384 5393 5399 5404 5408 5411 5411 5411 5412 5412 5410 5411 5409 5410 5409 5408 5410 5409 5406 5404 5403 5402 5402 5402 5402 5402 5401 5400 5399 5398 5397 5395 5393 5391 5389 5386 5383 5379 5376
5316 5316 5321 5321 5322 5322 5324 5327 5329 5330 5331 5333 5339 5350 5360 5369 5378 5385 5389 5394 5396 5398 5399 5399 5398 5396 5396 5396 5398 5397 5398 5396 5393 5392 5391 5390 5389 5389 5388 5388 5387 5386 5385 5384 5382 5381 5379 5377 5374 5372 5368 5364 5361 5357
5302 5306 5308 5308 5309 5310 5314 5318 5318 5319 5322 5326 5332 5340 5346 5354 5364 5375 5377 5380 5385 5387 5387 5387 5384 5384 5385 5385 5385 5385 5382 5381 5380 5379 5379 5377 5377 5376 5375 5374 5373 5371 5369 5368 5367 5364 5362 5359 5356 5352 5348 5344 5341 5337
5290 5293 5293 5295 5298 5303 5307 5309 5311 5311 5314 5318 5322 5328 5336 5345 5354 5363 5367 5370 5373 5375 5375 5374 5372 5375 5376 5375 5373 5370 5369 5368 5367 5366 5365 5364 5363 5361 5360 5359 5358 5355 5354 5352 5350 5347 5344 5340 5337 5332 5328 5324 5320 5315
5281 5283 5285 5288 5293 5296 5300 5301 5303 5305 5306 5311 5316 5320 5329 5337 5344 5354 5358 5361 5363 5362 5361 5363 5363 5363 5362 5361 5360 5357 5355 5354 5353 5352 5350 5349 5347 5345 5344 5343 5341 5339 5337 5335 5332 5328 5324 5319 5314 5310 5306 5301 5297 5291
5279 5280 5284 5287 5289 5293 5295 5296 5299 5300 5303 5307 5312 5320 5327 5333 5337 5344 5349 5351 5351 5350 5350 5351 5351 5351 5350 5347 5345 5344 5342 5341 5339 5338 5336 5333 5332 5331 5329 5327 5325 5322 5319 5315 5311 5305 5301 5297 5292 5286 5282 5277 5272 5267
5280 5281 5284 5286 5288 5289 5291 5294 5296 5299 5301 5305 5311 5316 5321 5325 5332 5338 5340 5342 5341 5341 5341 5341 5340 5338 5336 5335 5333 5331 5330 5328 5326 5324 5322 5320 5318 5316 5313 5310 5306 5302 5298 5293 5288 5284 5279 5274 5268 5263 5258 5254 5251 5246
5281 5282 5283 5284 5286 5288 5292 5294 5296 5299 5301 5305 5309 5314 5319 5323 5327 5330 5331 5332 5331 5330 5330 5329 5327 5326 5324 5322 5320 5318 5316 5314 5312 5310 5308 5306 5303 5299 5295 5291 5286 5281 5276 5271 5267 5262 5257 5252 5248 5243 5239 5235 5231 5226
5285 5285 5285 5287 5289 5291 5293 5295 5298 5301 5303 5306 5309 5312 5315 5318 5320 5320 5321 5321 5320 5320 5318 5317 5315 5313 5312 5310 5307 5305 5303 5301 5298 5295 5292 5288 5284 5279 5275 5270 5265 5260 5255 5251 5246 5243 5239 5234 5230 5225 5221 5217 5213 5208
5291 5290 5291 5291 5292 5294 5296 5298 5299 5301 5303 5304 5306 5307 5309 5311 5311 5311 5311 5311 5310 5309 5307 5305 5303 5301 5299 5297 5294 5291 5288 5285 5281 5277 5272 5268 5264 5259 5255 5250 5245 5241 5237 5233 5229 5224 5219 5215 5211 5207 5203 5199 5195 5191
5293 5292 5293 5293 5294 5295 5297 5297 5298 5298 5299 5301 5302 5302 5302 5302 5302 5302 5302 5300 5298 5297 5295 5293 5291 5288 5285 5282 5279 5275 5271 5267 5262 5258 5254 5249 5245 5240 5235 5231 5227 5224 5219 5215 5210 5205 5201 5198 5194 5191 5187 5184 5180 5176
5290 5290 5291 5292 5292 5292 5292 5293 5294 5294 5295 5295 5295 5295 5295 5294 5293 5292 5291 5289 5287 5285 5282 5280 5277 5274 5270 5267 5263 5259 5254 5250 5245 5241 5237 5232 5228 5223 5218 5213 5208 5204 5199 5195 5192 5189 5185 5183 5180 5177 5173 5170 5166 5162
5288 5287 5288 5288 5288 5288 5288 5288 5288 5288 5288 5288 5288 5286 5285 5285 5283 5281 5279 5277 5274 5271 5269 5266 5263 5259 5256 5252 5248 5243 5239 5235 5231 5226 5222 5218 5213 5208 5203 5198 5193 5188 5184 5180 5177 5175 5173 5170 5167 5164 5161 5158 5154 5150
5284 5284 5285 5284 5284 5283 5283 5283 5282 5282 5281 5280 5279 5277 5275 5273 5271 5269 5267 5264 5261 5259 5256 5253 5249 5245 5241 5237 5234 5230 5226 5221 5217 5212 5207 5202 5198 5195 5190 5186 5180 5175 5171 5166 5164 5163 5160 5157 5155 5153 5149 5146 5143 5138
5280 5280 5279 5278 5278 5277 5276 5275 5274 5272 5271 5270 5269 5267 5265 5263 5261 5258 5256 5253 5251 5248 5245 5241 5237 5234 5230 5226 5221 5216 5213 5210 5206 5202 5197 5191 5185 5180 5176 5172 5168 5164 5160 5155 5151 5149 5148 5145 5143 5141 5138 5135 5133 5129
5274 5274 5273 5272 5271 5269 5268 5267 5266 5264 5263 5262 5260 5259 5257 5255 5253 5250 5248 5245 5242 5239 5235 5231 5227 5223 5219 5214 5209 5204 5198 5192 5187 5183 5179 5176 5171 5166 5161 5157 5153 5150 5146 5142 5138 5136 5134 5133 5131 5129 5127 5125 5123 5120
5271 5269 5269 5267 5266 5265 5264 5263 5261 5260 5259 5257 5255 5253 5251 5249 5246 5243 5239 5236 5232 5228 5224 5220 5214 5209 5204 5199 5193 5188 5183 5179 5174 5168 5163 5157 5152 5148 5145 5141 5137 5133 5131 5128 5125 5122 5120 5120 5119 5118 5117 5115 5114 5112
5270 5269 5267 5266 5264 5263 5262 5260 5258 5256 5255 5252 5250 5247 5244 5241 5237 5234 5230 5225 5222 5217 5212 5207 5201 5195 5189 5182 5176 5170 5164 5159 5153 5147 5142 5138 5134 5129 5125 5121 5118 5115 5113 5112 5110 5108 5106 5106 5106 5106 5106 5105 5104 5102